[TLELIST] Archives

 

[list_settings.list_name] Current TLEs

August 9th 2022 PST

HST 1 20580U 90037B 22220.29410025 .00001650 00000-0 86215-4 0 9993 2 20580 28.4688 185.2532 0002442 229.9177 240.8264 15.10736061574066 ISS (ZARYA) 1 25544U 98067A 22221.37664352 .00005381 00000-0 10121-3 0 9990 2 25544 51.6456 73.0938 0005081 102.2891 267.4228 15.50282364353431 CXO 1 25867U 99040B 22223.58166090 .00000594 00000-0 00000-0 0 9994 2 25867 43.7767 230.5716 8870912 236.9466 0.5938 0.37811426 12009 ____________________________________________________________________ These 2-Line ...Continue Reading

[list_settings.list_name] Current TLEs

August 8th 2022 PST

HST 1 20580U 90037B 22219.95073168 .00001466 00000-0 75388-4 0 9991 2 20580 28.4688 187.5289 0002451 226.1303 173.4461 15.10734133574013 ISS (ZARYA) 1 25544U 98067A 22220.24217242 .00004606 00000-0 87836-4 0 9994 2 25544 51.6446 78.7183 0005258 96.6476 57.3971 15.50266017353253 CXO 1 25867U 99040B 22220.93961582 .00000596 00000-0 00000-0 0 9991 2 25867 43.8566 230.8157 8867933 236.8000 0.8374 0.37810225 12004 ____________________________________________________________________ These 2-Line ...Continue Reading

[list_settings.list_name] Current TLEs

August 7th 2022 PST

HST 1 20580U 90037B 22218.65223830 .00001174 00000-0 58219-4 0 9990 2 20580 28.4687 196.1355 0002480 211.6324 311.8991 15.10730018573817 ISS (ZARYA) 1 25544U 98067A 22219.37369213 .00004848 00000-0 92059-4 0 9993 2 25544 51.6438 83.0215 0005300 93.7176 250.1908 15.50258214353110 CXO 1 25867U 99040B 22220.93961582 .00000596 00000-0 00000-0 0 9991 2 25867 43.8566 230.8157 8867933 236.8000 0.8374 0.37810225 12004 ____________________________________________________________________ These 2-Line ...Continue Reading

[list_settings.list_name] Current TLEs

August 6th 2022 PST

HST 1 20580U 90037B 22218.22766250 .00001122 00000-0 55184-4 0 9992 2 20580 28.4686 198.9496 0002499 206.8115 163.0292 15.10729017574017 ISS (ZARYA) 1 25544U 98067A 22218.10817979 .00004822 00000-0 91638-4 0 9994 2 25544 51.6435 89.2946 0005294 87.3382 29.1974 15.50244769352921 CXO 1 25867U 99040B 22220.93843864 .00000596 00000-0 00000+0 0 9992 2 25867 43.8566 230.8157 8867931 236.8000 0.6769 0.37810166 23150 ____________________________________________________________________ These 2-Line ...Continue Reading

[list_settings.list_name] Current TLEs

August 5th 2022 PST

HST 1 20580U 90037B 22216.39750760 .00000927 00000-0 43711-4 0 9992 2 20580 28.4686 211.0799 0002572 186.7783 289.7980 15.10725077573470 ISS (ZARYA) 1 25544U 98067A 22217.27817765 .00004714 00000-0 89807-4 0 9999 2 25544 51.6439 93.4085 0005338 83.6346 77.7078 15.50235523352791 CXO 1 25867U 99040B 22218.29491520 .00000584 00000-0 00000-0 0 9994 2 25867 43.9248 231.0101 8865345 236.6970 0.7043 0.37809627 11985 ____________________________________________________________________ These 2-Line ...Continue Reading

[list_settings.list_name] Current TLEs

August 4th 2022 PST

HST 1 20580U 90037B 22215.41167483 .00000915 00000-0 42992-4 0 9995 2 20580 28.4686 217.6140 0002613 176.1668 328.2128 15.10723655573320 ISS (ZARYA) 1 25544U 98067A 22216.30929858 .00005120 00000-0 96876-4 0 9995 2 25544 51.6441 98.2103 0005314 80.2795 70.3439 15.50226906352642 CXO 1 25867U 99040B 22218.29491520 .00000584 00000-0 00000-0 0 9994 2 25867 43.9248 231.0101 8865345 236.6970 0.7043 0.37809627 11985 ____________________________________________________________________ These 2-Line ...Continue Reading

[list_settings.list_name] Current TLEs

August 3rd 2022 PST

HST 1 20580U 90037B 22215.19650914 .00000913 00000-0 42898-4 0 9999 2 20580 28.4686 219.0401 0002630 173.9126 237.9436 15.10723321573552 ISS (ZARYA) 1 25544U 98067A 22215.33525759 .00005392 00000-0 10162-3 0 9993 2 25544 51.6440 103.0365 0005345 77.2506 33.8606 15.50217212352499 CXO 1 25867U 99040B 22215.65008201 .00000625 00000-0 00000-0 0 9997 2 25867 44.0004 231.2293 8866082 236.5726 0.5919 0.37815060 11986 ____________________________________________________________________ These 2-Line ...Continue Reading

[list_settings.list_name] Current TLEs

August 2nd 2022 PST

HST 1 20580U 90037B 22213.76381410 .00000867 00000-0 40213-4 0 9999 2 20580 28.4687 228.5360 0002680 158.8529 5.6849 15.10720961573078 ISS (ZARYA) 1 25544U 98067A 22214.30881345 .00004904 00000-0 93198-4 0 9994 2 25544 51.6439 108.1237 0005315 74.4000 64.5849 15.50203446352333 CXO 1 25867U 99040B 22215.65008201 .00000625 00000-0 00000-0 0 9997 2 25867 44.0004 231.2293 8866082 236.5726 0.5919 0.37815060 11986 ____________________________________________________________________ These 2-Line ...Continue Reading

[list_settings.list_name] Current TLEs

August 1st 2022 PST

HST 1 20580U 90037B 22212.77288294 .00000866 00000-0 40154-4 0 9998 2 20580 28.4689 235.1039 0002716 148.5653 16.0060 15.10719439572923 ISS (ZARYA) 1 25544U 98067A 22213.27686728 .00004605 00000-0 88053-4 0 9999 2 25544 51.6434 113.2368 0005228 72.3396 63.8437 15.50191050352172 CXO 1 25867U 99040B 22213.00536383 .00000636 00000-0 00000+0 0 9992 2 25867 44.0973 231.5039 8866484 236.3926 0.5729 0.37813541 23128 ____________________________________________________________________ These 2-Line ...Continue Reading

[list_settings.list_name] Current TLEs

July 31st 2022 PST

HST 1 20580U 90037B 22211.78197002 .00000937 00000-0 44345-4 0 9999 2 20580 28.4690 241.6715 0002749 138.3574 26.3518 15.10718226572771 ISS (ZARYA) 1 25544U 98067A 22212.29811660 .00004885 00000-0 92944-4 0 9999 2 25544 51.6434 118.0876 0005224 68.4686 2.0223 15.50181984352020 CXO 1 25867U 99040B 22213.00536383 .00000636 00000-0 00000+0 0 9992 2 25867 44.0973 231.5039 8866484 236.3926 0.5729 0.37813541 23128 ____________________________________________________________________ These 2-Line ...Continue Reading
  • This mailing list is a public mailing list - anyone may join or leave, at any time.
  • This mailing list is announce-only.

International Space Station (ISS) / Hubble Space Telescope (HST) / Chandra X-Ray Observatory Orbital Data via EMAIL

Privacy Policy:

Private list